TimeEDT,TemperatureF,Dew PointF,Humidity,Sea Level PressureIn,VisibilityMPH,Wind Direction,Wind SpeedMPH,Gust SpeedMPH,PrecipitationIn,Events,Conditions,WindDirDegrees,DateUTC
12:53 AM,37.0,32.0,82,30.04,8.0,East,4.6,-,N/A,,Clear,100,2013-03-10 05:53:00
1:53 AM,39.9,33.1,77,30.03,10.0,East,3.5,-,N/A,,Clear,90,2013-03-10 06:53:00
3:53 AM,41.0,32.0,70,30.00,10.0,ESE,3.5,-,N/A,,Clear,120,2013-03-10 07:53:00
4:53 AM,43.0,32.0,65,29.99,10.0,Calm,Calm,-,N/A,,Overcast,0,2013-03-10 08:53:00
5:53 AM,46.0,34.0,63,29.99,10.0,South,8.1,-,N/A,,Overcast,180,2013-03-10 09:53:00
6:53 AM,46.0,34.0,63,29.99,10.0,South,8.1,-,N/A,,Overcast,180,2013-03-10 10:53:00
8:53 AM,48.0,34.0,58,30.01,10.0,South,9.2,-,N/A,,Partly Cloudy,190,2013-03-10 12:53:00
9:53 AM,55.9,36.0,47,29.99,10.0,South,16.1,26.5,N/A,,Partly Cloudy,180,2013-03-10 13:53:00
10:53 AM,57.9,35.1,42,29.98,10.0,South,18.4,27.6,N/A,,Clear,180,2013-03-10 14:53:00
11:53 AM,59.0,36.0,42,29.98,10.0,South,17.3,27.6,N/A,,Scattered Clouds,190,2013-03-10 15:53:00
12:53 PM,62.1,37.9,41,29.96,10.0,SSW,17.3,23.0,N/A,,Clear,210,2013-03-10 16:53:00
1:53 PM,63.0,39.9,43,29.95,10.0,SSW,19.6,31.1,N/A,,Clear,210,2013-03-10 17:53:00
2:53 PM,64.9,43.0,45,29.92,10.0,SSW,18.4,28.8,N/A,,Partly Cloudy,210,2013-03-10 18:53:00
3:53 PM,66.0,42.1,42,29.92,10.0,SSW,18.4,24.2,N/A,,Scattered Clouds,200,2013-03-10 19:53:00
4:53 PM,64.9,37.0,36,29.89,10.0,South,15.0,23.0,N/A,,Clear,190,2013-03-10 20:53:00
5:53 PM,63.0,39.0,41,29.90,10.0,South,12.7,-,N/A,,Clear,180,2013-03-10 21:53:00
6:53 PM,60.1,39.9,47,29.88,10.0,SSE,8.1,-,N/A,,Clear,160,2013-03-10 22:53:00
7:53 PM,57.0,39.0,51,29.86,10.0,SSE,9.2,-,N/A,,Clear,150,2013-03-10 23:53:00
8:53 PM,55.0,39.0,55,29.87,10.0,SE,5.8,-,N/A,,Clear,140,2013-03-11 00:53:00
9:53 PM,54.0,39.0,57,29.85,10.0,SE,4.6,-,N/A,,Clear,140,2013-03-11 01:53:00
10:53 PM,53.1,39.0,59,29.83,10.0,SE,6.9,-,N/A,,Clear,140,2013-03-11 02:53:00
11:53 PM,55.0,39.0,55,29.84,10.0,WSW,10.4,-,N/A,,Overcast,240,2013-03-11 03:53:00
12:53 AM,53.1,42.1,66,29.82,10.0,South,6.9,-,0.00,Rain,Light Rain,180,2013-03-11 04:53:00